フォーブズ彗星

37P/Forbes (2024)

English version
Home page
Updated on June 27, 2024

---------------------------------------------------------------------

・ プロフィール

・ 写真集

・ 軌道要素

Epoch 2024 Mar. 31.0 TT = JDT 2460400.5
T 2024 Oct. 11.25875 TT                                 Rudenko
q   1.6177198            (2000.0)            P               Q
n   0.15294611     Peri.  330.06998     +0.25681168     +0.96008595
a   3.4629303      Node   314.55465     -0.85298054     +0.17124700
e   0.5328466      Incl.    8.94751     -0.45439185     +0.22115478
P   6.44
>From 1279 observations 2011 Feb. 8-2024 Mar. 18, mean residual 0".6.
     Nongravitational parameters A1 = +0.77, A2 = -0.0538.

・ 星図

・ 光度変化

        m1 = 7.2 + 5 logΔ + 25 log r

---------------------------------------------------------------------

軌道要素はM.P.E.C. 2024-F34に掲載されたものです。
星図はステラナビゲータ Ver.10 (アストロアーツ) で作成したものです。
光度グラフはComet for Windowsで作成したものです。

---------------------------------------------------------------------

Copyright(C) Seiichi Yoshida (comet@aerith.net). All rights reserved.